DB0ASF-4 Weather Reports


time (UTC)temp
C
wind
direction
speed
KPH
gust
KPH
rain 1hr
cm
rain 24hr
cm
rain mn
cm
humidity
%
barometer
mb
20260507092918 11 292 0.0 0.0 0.00 0.05 0.00 80 1019.4
20260507091918 11 337 3.2 0.0 0.00 0.05 0.00 80 1019.2
20260507090918 11 0 0.0 0.0 0.00 0.05 0.00 80 1019.2
20260507085918 11 337 0.0 0.0 0.00 0.05 0.00 80 1019.0
20260507084918 11 90 0.0 0.0 0.00 0.05 0.00 80 1019.0
20260507083918 11 22 4.8 0.0 0.00 0.05 0.00 82 1018.9
20260507082918 11 292 0.0 0.0 0.00 0.05 0.00 82 1018.9
20260507081918 10 270 0.0 0.0 0.00 0.05 0.00 82 1018.7
20260507080918 11 202 0.0 0.0 0.00 0.05 0.00 82 1018.7
20260507075918 11 22 0.0 0.0 0.00 0.05 0.00 83 1018.5
20260507074918 11 337 0.0 0.0 0.00 0.05 0.00 84 1018.4
20260507073918 11 292 0.0 0.0 0.00 0.05 0.00 84 1018.2
20260507072918 11 0 0.0 0.0 0.00 0.05 0.00 85 1018.2
20260507071918 10 247 0.0 0.0 0.00 0.05 0.00 84 1018.2
20260507070918 10 292 0.0 0.0 0.00 0.05 0.00 84 1018.0
20260507065918 10 202 0.0 0.0 0.00 0.05 0.00 85 1018.0
20260507064918 10 180 0.0 0.0 0.00 0.05 0.00 85 1017.9
20260507063918 10 315 0.0 0.0 0.00 0.05 0.00 86 1017.7
20260507062918 10 315 0.0 0.0 0.00 0.05 0.00 86 1017.7
20260507061920 10 180 0.0 0.0 0.00 0.05 0.00 86 1017.5
20260507060918 10 0 0.0 0.0 0.00 0.05 0.00 86 1017.2
20260507055919 10 0 0.0 0.0 0.00 0.05 0.00 86 1017.2
20260507054918 10 337 0.0 0.0 0.00 0.05 0.00 87 1017.2
20260507053918 10 0 0.0 0.0 0.00 0.05 0.00 87 1017.0
20260507052918 10 292 0.0 0.0 0.00 0.05 0.00 87 1016.9
20260507051918 10 337 0.0 0.0 0.00 0.05 0.00 88 1016.7
20260507050918 10 22 0.0 0.0 0.00 0.05 0.00 88 1016.7
20260507045918 9 315 0.0 0.0 0.00 0.05 0.00 88 1016.7
20260507044918 9 337 0.0 0.0 0.00 0.05 0.00 88 1016.5
20260507043918 9 315 0.0 0.0 0.00 0.05 0.00 87 1016.2
20260507042918 9 157 0.0 0.0 0.00 0.05 0.00 87 1016.2
20260507041918 9 67 0.0 0.0 0.00 0.05 0.00 87 1016.0
20260507040918 9 0 0.0 0.0 0.00 0.05 0.00 87 1016.0
20260507035918 9 0 0.0 0.0 0.00 0.05 0.00 87 1016.0
20260507034918 9 0 0.0 0.0 0.00 0.05 0.00 87 1015.9
20260507033918 9 22 0.0 0.0 0.00 0.05 0.00 87 1015.7
20260507032918 9 22 0.0 0.0 0.00 0.05 0.00 87 1015.7
20260507031918 9 247 0.0 0.0 0.00 0.05 0.00 87 1015.7
20260507030918 9 270 0.0 0.0 0.00 0.05 0.00 87 1015.7
20260507025918 9 135 0.0 0.0 0.00 0.05 0.00 87 1015.5
20260507024918 9 270 0.0 0.0 0.00 0.05 0.00 87 1015.7
20260507023918 9 225 0.0 0.0 0.05 0.05 0.00 87 1015.7
20260507022918 9 337 0.0 0.0 0.05 0.05 0.00 87 1015.5
20260507021918 9 337 0.0 0.0 0.05 0.05 0.00 86 1015.4
20260507020918 9 315 0.0 0.0 0.05 0.05 0.00 86 1015.2
20260507015918 9 45 0.0 0.0 0.05 0.05 0.00 85 1015.2
20260507014918 10 315 0.0 0.0 0.00 0.00 0.00 85 1015.2
20260507013918 10 315 0.0 0.0 0.00 0.00 0.00 85 1015.0
20260507012918 10 315 0.0 0.0 0.00 0.00 0.00 85 1015.0
20260507011918 10 315 0.0 0.0 0.00 0.00 0.00 85 1014.7
20260507010918 10 292 0.0 0.0 0.00 0.00 0.00 85 1014.9
20260507005918 10 315 0.0 0.0 0.00 0.00 0.00 85 1015.0
20260507004918 10 292 0.0 0.0 0.00 0.00 0.00 84 1014.9
20260507003918 10 0 0.0 0.0 0.00 0.00 0.00 84 1014.9
20260507002918 10 315 0.0 0.0 0.00 0.00 0.00 83 1014.7
20260507001918 10 315 0.0 0.0 0.00 0.00 0.00 83 1014.7
20260507000918 10 315 0.0 0.0 0.00 0.00 0.00 83 1014.7
20260506235918 10 337 0.0 0.0 0.00 0.05 0.00 83 1014.7
20260506234918 11 337 0.0 0.0 0.00 0.05 0.00 83 1014.5
20260506233918 11 292 0.0 0.0 0.00 0.05 0.00 83 1014.5
20260506232918 11 337 0.0 0.0 0.00 0.05 0.00 83 1014.4
20260506231918 11 202 0.0 0.0 0.00 0.05 0.00 83 1014.5
20260506230918 11 0 0.0 0.0 0.00 0.05 0.00 82 1014.2
20260506225918 11 337 0.0 0.0 0.00 0.15 0.00 82 1014.2
20260506224918 11 270 0.0 0.0 0.00 0.15 0.00 82 1014.2
20260506223918 11 292 0.0 0.0 0.00 0.15 0.00 82 1014.0
20260506222918 11 337 0.0 0.0 0.00 0.15 0.00 82 1014.0
20260506221918 11 292 0.0 0.0 0.00 0.15 0.00 82 1014.0
20260506220918 11 337 0.0 0.0 0.00 0.15 0.00 82 1013.7
20260506215918 11 337 0.0 0.0 0.00 0.20 0.00 82 1013.7
20260506214918 11 292 0.0 0.0 0.00 0.20 0.00 83 1013.7
20260506213918 11 292 0.0 0.0 0.00 0.20 0.00 83 1013.7
20260506212918 11 202 0.0 0.0 0.00 0.20 0.00 83 1013.7
20260506211918 12 0 0.0 0.0 0.00 0.20 0.00 83 1013.5
20260506210918 12 315 0.0 0.0 0.00 0.20 0.00 83 1013.4
20260506205918 12 0 0.0 0.0 0.00 0.20 0.00 84 1013.4
20260506204918 12 112 0.0 0.0 0.00 0.20 0.00 84 1013.4
20260506203918 12 45 0.0 0.0 0.00 0.20 0.00 84 1013.4
20260506202918 11 45 0.0 0.0 0.00 0.20 0.00 83 1013.2
20260506201918 11 0 0.0 0.0 0.00 0.20 0.00 83 1013.2
20260506200918 12 0 0.0 0.0 0.00 0.20 0.00 83 1013.0
20260506195918 12 0 0.0 0.0 0.00 0.20 0.00 83 1013.0
20260506194918 12 270 0.0 0.0 0.00 0.20 0.00 83 1013.0
20260506193918 12 337 0.0 0.0 0.00 0.20 0.00 82 1012.7
20260506192918 12 337 0.0 0.0 0.00 0.20 0.00 82 1012.4
20260506191918 12 90 0.0 0.0 0.00 0.20 0.00 82 1012.4
20260506190918 12 337 0.0 0.0 0.00 0.20 0.00 82 1012.2
20260506185918 12 315 0.0 0.0 0.00 0.20 0.00 81 1012.2
20260506184918 12 337 0.0 0.0 0.00 0.20 0.00 82 1012.2
20260506183918 13 0 0.0 0.0 0.00 0.20 0.00 82 1011.9
20260506182918 13 0 0.0 0.0 0.00 0.20 0.00 81 1011.9
20260506181918 13 292 0.0 0.0 0.00 0.20 0.00 80 1011.7
20260506180918 13 315 0.0 0.0 0.00 0.20 0.00 79 1011.5
20260506175918 13 315 0.0 0.0 0.00 0.20 0.00 78 1011.5
20260506174918 14 337 0.0 0.0 0.00 0.20 0.00 77 1011.2
20260506173918 15 315 0.0 0.0 0.00 0.20 0.00 76 1011.2
20260506172918 15 180 0.0 0.0 0.00 0.20 0.00 75 1011.0
20260506171918 15 0 0.0 0.0 0.00 0.20 0.00 74 1010.9
20260506170918 15 292 0.0 0.0 0.00 0.20 0.00 73 1010.7
20260506165918 15 247 0.0 0.0 0.00 0.20 0.00 71 1010.7
20260506164918 16 270 0.0 0.0 0.00 0.20 0.00 68 1010.7
20260506163918 17 292 0.0 0.0 0.00 0.20 0.00 65 1010.7
20260506162918 17 0 0.0 0.0 0.00 0.20 0.00 65 1010.7
20260506161918 17 22 4.8 0.0 0.00 0.20 0.00 65 1010.7
20260506160918 18 247 0.0 0.0 0.00 0.20 0.00 64 1010.7
20260506155918 18 225 0.0 0.0 0.00 0.25 0.00 63 1010.7
20260506154918 18 45 0.0 0.0 0.00 0.25 0.00 61 1010.5
20260506153918 18 112 0.0 0.0 0.00 0.25 0.00 61 1010.2
20260506152918 18 292 0.0 0.0 0.00 0.25 0.00 60 1010.5
20260506151918 18 90 0.0 0.0 0.00 0.25 0.00 58 1010.2
20260506150918 19 180 0.0 0.0 0.00 0.25 0.00 56 1010.4
20260506145918 20 180 0.0 0.0 0.00 0.30 0.00 55 1010.4
20260506144918 21 202 0.0 0.0 0.00 0.30 0.00 53 1010.0
20260506143918 21 180 0.0 0.0 0.00 0.30 0.00 52 1010.2
20260506142918 21 247 0.0 0.0 0.00 0.30 0.00 53 1010.2
20260506141918 21 180 0.0 0.0 0.00 0.30 0.00 51 1010.2
20260506140918 22 180 0.0 0.0 0.00 0.30 0.00 50 1010.2
20260506135918 23 180 0.0 0.0 0.00 0.41 0.00 48 1010.2
20260506134918 24 292 0.0 0.0 0.00 0.41 0.00 47 1010.2
20260506133918 26 180 0.0 0.0 0.00 0.41 0.00 45 1010.2
20260506132918 25 202 3.2 0.0 0.00 0.41 0.00 46 1010.2
20260506131918 23 180 3.2 0.0 0.00 0.41 0.00 47 1010.2
20260506130918 24 202 0.0 0.0 0.00 0.41 0.00 48 1010.2
20260506125918 25 180 0.0 0.0 0.00 0.51 0.00 48 1010.2
20260506124918 23 22 0.0 0.0 0.00 0.51 0.00 52 1010.2
20260506123918 22 180 0.0 0.0 0.00 0.51 0.00 54 1010.5
20260506122918 21 270 0.0 0.0 0.00 0.51 0.00 56 1010.5
20260506121918 21 202 0.0 0.0 0.00 0.51 0.00 58 1010.2
20260506120918 20 247 0.0 0.0 0.00 0.51 0.00 56 1010.7
20260506115918 21 270 0.0 0.0 0.00 0.51 0.00 56 1010.5
20260506114918 21 180 0.0 0.0 0.00 0.51 0.00 56 1010.5
20260506113918 21 202 0.0 0.0 0.00 0.51 0.00 59 1010.4
20260506112918 21 180 3.2 0.0 0.00 0.51 0.00 59 1010.5
20260506111918 21 202 0.0 0.0 0.00 0.51 0.00 60 1010.5
20260506110918 20 315 0.0 0.0 0.00 0.51 0.00 59 1010.5
20260506105918 21 180 0.0 0.0 0.00 0.51 0.00 60 1010.5
20260506104918 21 202 0.0 0.0 0.00 0.51 0.00 60 1010.5
20260506103918 21 202 0.0 0.0 0.00 0.51 0.00 62 1010.7
20260506102918 20 67 0.0 0.0 0.00 0.51 0.00 65 1010.7
20260506101918 19 180 0.0 0.0 0.00 0.51 0.00 66 1010.7
20260506100918 18 292 0.0 0.0 0.00 0.51 0.00 69 1010.7
20260506095918 18 202 0.0 0.0 0.00 0.51 0.00 71 1010.9
20260506094918 17 270 0.0 0.0 0.00 0.51 0.00 72 1010.7
20260506093918 18 202 0.0 0.0 0.00 0.51 0.00 70 1010.7